28-12-2022, 00:00:05,    205,    3.8,    8.4,   0.00,   0.00, 1005.9,    0.1, -999.0
28-12-2022, 00:00:14,    135,    2.7,    8.4,   0.00,   0.00, 1005.9,    0.3, -999.0
28-12-2022, 00:00:25,    284,    0.9,    8.4,   0.00,   0.00, 1005.8,    0.0, -999.0
28-12-2022, 00:00:35,    283,    0.4,    8.3,   0.00,   0.00, 1005.8,    0.0, -999.0
28-12-2022, 00:00:45,    208,    3.0,    8.3,   0.00,   0.00, 1005.8,    0.0, -999.0
28-12-2022, 00:00:54,    244,    4.1,    8.4,   0.00,   0.00, 1005.9,    0.1, -999.0
28-12-2022, 00:01:05,    236,    5.6,    8.4,   0.00,   0.00, 1005.8,    0.0, -999.0
28-12-2022, 00:01:15,    249,    5.3,    8.4,   0.00,   0.00, 1005.9,    0.0, -999.0
28-12-2022, 00:01:24,    202,    5.0,    8.5,   0.00,   0.00, 1005.8,    0.1, -999.0
28-12-2022, 00:01:34,    238,    6.6,    8.5,   0.00,   0.00, 1005.9,    0.1, -999.0
28-12-2022, 00:01:45,    248,    5.7,    8.5,   0.00,   0.00, 1005.9,    0.0, -999.0
28-12-2022, 00:01:54,    243,    8.8,    8.4,   0.00,   0.00, 1005.9,    0.2, -999.0
28-12-2022, 00:02:04,    215,    5.3,    8.5,   0.00,   0.00, 1005.9,    0.0, -999.0
28-12-2022, 00:02:14,    232,    6.4,    8.5,   0.00,   0.00, 1005.8,    0.0, -999.0
28-12-2022, 00:02:24,    246,    4.6,    8.5,   0.00,   0.00, 1005.8,    0.1, -999.0
28-12-2022, 00:02:34,    259,    4.1,    8.5,   0.00,   0.00, 1005.8,    0.0, -999.0
28-12-2022, 00:02:44,    215,    3.1,    8.5,   0.00,   0.00, 1005.8,    0.1, -999.0
28-12-2022, 00:02:55,    170,    2.2,    8.5,   0.00,   0.00, 1005.8,    0.0, -999.0
28-12-2022, 00:03:04,    231,    2.5,    8.5,   0.00,   0.00, 1005.9,    0.0, -999.0
28-12-2022, 00:03:14,    225,    4.6,    8.5,   0.00,   0.00, 1005.9,    0.1, -999.0
28-12-2022, 00:03:24,    211,    2.4,    8.5,   0.00,   0.00, 1005.8,    0.0, -999.0
28-12-2022, 00:03:34,    248,    1.5,    8.5,   0.00,   0.00, 1005.8,    0.2, -999.0
28-12-2022, 00:03:44,    254,    4.9,    8.5,   0.00,   0.00, 1005.8,    0.0, -999.0
28-12-2022, 00:03:54,    216,    5.2,    8.4,   0.00,   0.00, 1005.8,    0.1, -999.0
28-12-2022, 00:04:04,    189,    2.7,    8.5,   0.00,   0.00, 1005.8,    0.1, -999.0
28-12-2022, 00:04:14,    195,    0.7,    8.5,   0.00,   0.00, 1005.8,    0.0, -999.0
28-12-2022, 00:04:24,    236,    2.6,    8.5,   0.00,   0.00, 1005.8,    0.0, -999.0
28-12-2022, 00:04:34,    277,    2.4,    8.4,   0.00,   0.00, 1005.8,    0.0, -999.0
28-12-2022, 00:04:44,    190,    1.9,    8.4,   0.00,   0.00, 1005.8,    0.0, -999.0
28-12-2022, 00:04:54,    237,    4.1,    8.4,   0.00,   0.00, 1005.8,    0.1, -999.0
28-12-2022, 00:05:04,    247,    4.4,    8.5,   0.00,   0.00, 1005.8,    0.0, -999.0
28-12-2022, 00:05:14,    175,    3.2,    8.4,   0.00,   0.00, 1005.8,    0.0, -999.0
28-12-2022, 00:05:24,    205,    2.2,    8.4,   0.00,   0.00, 1005.7,    0.0, -999.0
28-12-2022, 00:05:34,    235,    1.7,    8.4,   0.00,   0.00, 1005.8,    0.2, -999.0
28-12-2022, 00:05:44,    217,    7.5,    8.4,   0.00,   0.00, 1005.8,    0.0, -999.0
28-12-2022, 00:05:54,    214,    6.8,    8.4,   0.00,   0.00, 1005.7,    0.0, -999.0
28-12-2022, 00:06:04,    217,    7.1,    8.5,   0.00,   0.00, 1005.8,    0.1, -999.0
28-12-2022, 00:06:14,    211,    5.2,    8.5,   0.00,   0.00, 1005.7,    0.0, -999.0
28-12-2022, 00:06:24,    215,    4.5,    8.5,   0.00,   0.00, 1005.7,    0.0, -999.0
28-12-2022, 00:06:34,    207,    2.5,    8.5,   0.00,   0.00, 1005.7,    0.1, -999.0
28-12-2022, 00:06:44,    224,    3.2,    8.4,   0.00,   0.01, 1005.8,    0.1, -999.0
28-12-2022, 00:06:54,    247,    3.7,    8.4,   0.00,   0.00, 1005.7,    0.0, -999.0
28-12-2022, 00:07:04,    194,    1.1,    8.5,   0.00,   0.00, 1005.7,    0.0, -999.0
28-12-2022, 00:07:14,    247,    2.6,    8.5,   0.00,   0.00, 1005.7,    0.1, -999.0
28-12-2022, 00:07:24,    261,    2.5,    8.5,   0.00,   0.00, 1005.7,    0.0, -999.0
28-12-2022, 00:07:34,    223,    4.5,    8.4,   0.00,   0.00, 1005.7,    0.1, -999.0
28-12-2022, 00:07:44,    224,    6.5,    8.4,   0.00,   0.00, 1005.7,    0.1, -999.0
28-12-2022, 00:07:54,    220,    5.0,    8.4,   0.00,   0.00, 1005.7,    0.0, -999.0
28-12-2022, 00:08:04,    230,    4.3,    8.4,   0.00,   0.00, 1005.7,    0.1, -999.0
28-12-2022, 00:08:14,    233,    3.5,    8.4,   0.00,   0.00, 1005.7,    0.0, -999.0
28-12-2022, 00:08:24,    250,    3.9,    8.4,   0.00,   0.00, 1005.7,    0.0, -999.0
28-12-2022, 00:08:34,    207,    2.7,    8.4,   0.00,   0.00, 1005.7,    0.0, -999.0
28-12-2022, 00:08:44,    224,    3.7,    8.4,   0.00,   0.00, 1005.6,    0.1, -999.0
28-12-2022, 00:08:54,    234,    2.4,    8.4,   0.00,   0.00, 1005.7,    0.1, -999.0
28-12-2022, 00:09:03,    188,    5.8,    8.4,   0.00,   0.00, 1005.6,    0.1, -999.0
28-12-2022, 00:09:14,    201,    2.4,    8.4,   0.00,   0.00, 1005.6,    0.0, -999.0
28-12-2022, 00:09:24,    218,    2.9,    8.4,   0.00,   0.00, 1005.6,    0.1, -999.0
28-12-2022, 00:09:34,    269,    1.9,    8.4,   0.00,   0.00, 1005.6,    0.0, -999.0
28-12-2022, 00:09:43,    269,    0.0,    8.2,   0.00,   0.01, 1005.5,    0.1, -999.0
28-12-2022, 00:09:54,    227,    0.6,    8.3,   0.00,   0.00, 1005.6,    0.0, -999.0
28-12-2022, 00:10:04,    214,    1.7,    8.4,   0.00,   0.00, 1005.5,    0.1, -999.0
28-12-2022, 00:10:13,    256,    2.3,    8.4,   0.00,   0.00, 1005.7,    0.0, -999.0
28-12-2022, 00:10:23,    250,    3.4,    8.4,   0.00,   0.00, 1005.6,    0.0, -999.0
28-12-2022, 00:10:34,    230,    2.1,    8.4,   0.00,   0.00, 1005.6,    0.0, -999.0
28-12-2022, 00:10:43,    216,    5.7,    8.4,   0.00,   0.00, 1005.7,    0.1, -999.0
28-12-2022, 00:10:53,    207,    3.4,    8.4,   0.00,   0.00, 1005.6,    0.0, -999.0
28-12-2022, 00:11:04,    243,    2.4,    8.4,   0.00,   0.00, 1005.7,    0.0, -999.0
28-12-2022, 00:11:14,    207,    4.1,    8.4,   0.00,   0.00, 1005.6,    0.0, -999.0
28-12-2022, 00:11:23,    276,    2.2,    8.5,   0.00,   0.00, 1005.6,    0.0, -999.0
28-12-2022, 00:11:33,    236,    5.9,    8.4,   0.00,   0.00, 1005.6,    0.0, -999.0
28-12-2022, 00:11:44,    234,    6.2,    8.5,   0.00,   0.00, 1005.6,    0.0, -999.0
28-12-2022, 00:11:53,    230,    5.7,    8.4,   0.00,   0.00, 1005.6,    0.1, -999.0
28-12-2022, 00:12:03,    226,    5.9,    8.4,   0.00,   0.00, 1005.6,    0.1, -999.0
28-12-2022, 00:12:13,    229,    6.2,    8.4,   0.00,   0.00, 1005.7,    0.0, -999.0
28-12-2022, 00:12:23,    221,    4.9,    8.4,   0.00,   0.00, 1005.6,    0.0, -999.0
28-12-2022, 00:12:33,    208,    2.7,    8.5,   0.00,   0.00, 1005.7,    0.0, -999.0
28-12-2022, 00:12:43,    192,    3.4,    8.5,   0.00,   0.00, 1005.7,    0.1, -999.0
28-12-2022, 00:12:53,    260,    3.4,    8.5,   0.00,   0.00, 1005.7,    0.0, -999.0
28-12-2022, 00:13:03,    234,    2.2,    8.5,   0.00,   0.00, 1005.7,    0.0, -999.0
28-12-2022, 00:13:13,    224,    2.1,    8.4,   0.00,   0.00, 1005.6,    0.0, -999.0
28-12-2022, 00:13:23,    226,    2.8,    8.5,   0.00,   0.00, 1005.7,    0.0, -999.0
28-12-2022, 00:13:33,    231,    5.4,    8.5,   0.00,   0.00, 1005.7,    0.1, -999.0
28-12-2022, 00:13:43,    224,    3.3,    8.5,   0.00,   0.00, 1005.7,    0.1, -999.0
28-12-2022, 00:13:53,    246,    5.1,    8.5,   0.00,   0.00, 1005.7,    0.0, -999.0
28-12-2022, 00:14:03,    206,    4.8,    8.6,   0.00,   0.00, 1005.7,    0.1, -999.0
28-12-2022, 00:14:13,    256,    3.6,    8.5,   0.00,   0.00, 1005.7,    0.0, -999.0
28-12-2022, 00:14:23,    258,    4.1,    8.6,   0.00,   0.00, 1005.7,    0.1, -999.0
28-12-2022, 00:14:33,    246,    3.5,    8.6,   0.00,   0.01, 1005.7,    0.0, -999.0
28-12-2022, 00:14:43,    240,    1.3,    8.6,   0.00,   0.00, 1005.7,    0.1, -999.0
28-12-2022, 00:14:53,    239,    0.9,    8.5,   0.00,   0.00, 1005.7,    0.0, -999.0
28-12-2022, 00:15:03,    233,    0.9,    8.5,   0.00,   0.00, 1005.7,    0.0, -999.0
28-12-2022, 00:15:13,    244,    1.8,    8.5,   0.00,   0.00, 1005.7,    0.0, -999.0
28-12-2022, 00:15:23,    206,    2.3,    8.5,   0.00,   0.00, 1005.8,    0.0, -999.0
28-12-2022, 00:15:33,    187,    2.4,    8.5,   0.00,   0.00, 1005.8,    0.0, -999.0
28-12-2022, 00:15:43,    212,    0.5,    8.5,   0.00,   0.00, 1005.7,    0.0, -999.0
28-12-2022, 00:15:53,    225,    0.5,    8.5,   0.00,   0.00, 1005.8,    0.0, -999.0
28-12-2022, 00:16:03,    265,    1.4,    8.5,   0.00,   0.00, 1005.7,    0.0, -999.0
28-12-2022, 00:16:13,    207,    3.1,    8.5,   0.00,   0.00, 1005.7,    0.1, -999.0
28-12-2022, 00:16:23,    222,    3.7,    8.5,   0.00,   0.00, 1005.7,    0.0, -999.0
28-12-2022, 00:16:33,    241,    3.6,    8.6,   0.00,   0.00, 1005.8,    0.0, -999.0
28-12-2022, 00:16:43,    220,    4.5,    8.5,   0.00,   0.00, 1005.9,    0.1, -999.0
28-12-2022, 00:16:53,    257,    3.2,    8.6,   0.00,   0.00, 1005.8,    0.0, -999.0
28-12-2022, 00:17:03,    222,    1.6,    8.6,   0.00,   0.00, 1005.7,    0.0, -999.0
28-12-2022, 00:17:13,    253,    2.0,    8.6,   0.00,   0.00, 1005.8,    0.0, -999.0
28-12-2022, 00:17:23,    253,    2.0,    8.6,   0.00,   0.00, 1005.9,    0.0, -999.0
28-12-2022, 00:17:33,    249,    1.8,    8.6,   0.00,   0.00, 1005.9,    0.1, -999.0
28-12-2022, 00:17:43,    235,    2.1,    8.5,   0.00,   0.00, 1005.9,    0.0, -999.0
28-12-2022, 00:17:53,    230,    3.1,    8.5,   0.00,   0.00, 1005.9,    0.0, -999.0
28-12-2022, 00:18:03,    249,    2.4,    8.5,   0.00,   0.00, 1005.8,    0.1, -999.0
28-12-2022, 00:18:13,    201,    2.6,    8.5,   0.00,   0.00, 1005.9,    0.1, -999.0
28-12-2022, 00:18:23,    300,    1.2,    8.5,   0.00,   0.00, 1005.9,    0.0, -999.0
28-12-2022, 00:18:32,    242,    2.8,    8.5,   0.00,   0.00, 1005.9,    0.0, -999.0
28-12-2022, 00:18:43,    171,    3.7,    8.6,   0.00,   0.00, 1005.9,    0.1, -999.0
28-12-2022, 00:18:53,    197,    1.0,    8.5,   0.00,   0.00, 1005.9,    0.0, -999.0
28-12-2022, 00:19:02,     13,    0.8,    8.6,   0.00,   0.00, 1005.9,    0.1, -999.0
28-12-2022, 00:19:12,    230,    0.3,    8.5,   0.00,   0.00, 1005.9,    0.1, -999.0
28-12-2022, 00:19:23,    229,    2.6,    8.6,   0.00,   0.00, 1005.9,    0.0, -999.0
28-12-2022, 00:19:33,    238,    2.7,    8.5,   0.00,   0.00, 1005.9,    0.0, -999.0
28-12-2022, 00:19:42,    220,    2.1,    8.5,   0.00,   0.00, 1005.9,    0.0, -999.0
28-12-2022, 00:19:53,    244,    2.4,    8.5,   0.00,   0.00, 1005.9,    0.0, -999.0
28-12-2022, 00:20:03,    263,    6.1,    8.5,   0.00,   0.00, 1005.9,    0.0, -999.0
28-12-2022, 00:20:12,    220,    7.9,    8.6,   0.00,   0.00, 1005.9,    0.0, -999.0
28-12-2022, 00:20:22,    254,    6.5,    8.6,   0.00,   0.00, 1006.0,    0.1, -999.0
28-12-2022, 00:20:33,    244,    5.1,    8.7,   0.00,   0.00, 1006.0,    0.0, -999.0
28-12-2022, 00:20:42,    222,    3.8,    8.7,   0.00,   0.00, 1006.1,    0.1, -999.0
28-12-2022, 00:20:52,    275,    2.3,    8.7,   0.00,   0.00, 1006.0,    0.0, -999.0
28-12-2022, 00:21:02,    278,    3.7,    8.6,   0.00,   0.00, 1006.0,    0.1, -999.0
28-12-2022, 00:21:13,    253,    3.9,    8.8,   0.00,   0.00, 1005.9,    0.0, -999.0
28-12-2022, 00:21:22,    220,    1.3,    8.7,   0.00,   0.00, 1005.9,    0.0, -999.0
28-12-2022, 00:21:32,    255,    2.4,    8.7,   0.00,   0.00, 1005.9,    0.0, -999.0
28-12-2022, 00:21:42,    256,    0.2,    8.6,   0.00,   0.00, 1006.0,    0.0, -999.0
28-12-2022, 00:21:52,    276,    2.2,    8.6,   0.00,   0.00, 1006.0,    0.0, -999.0
28-12-2022, 00:22:02,    258,    5.0,    8.7,   0.00,   0.00, 1006.1,    0.0, -999.0
28-12-2022, 00:22:12,    257,    1.5,    8.7,   0.00,   0.00, 1006.0,    0.2, -999.0
28-12-2022, 00:22:22,    265,    2.6,    8.6,   0.00,   0.00, 1005.9,    0.1, -999.0
28-12-2022, 00:22:32,    244,    0.9,    8.6,   0.00,   0.00, 1006.0,    0.0, -999.0
28-12-2022, 00:22:42,    244,    0.1,    8.6,   0.00,   0.00, 1006.0,    0.0, -999.0
28-12-2022, 00:22:52,    254,    1.0,    8.6,   0.00,   0.00, 1006.1,    0.1, -999.0
28-12-2022, 00:23:02,    195,    1.1,    8.6,   0.00,   0.00, 1006.0,    0.1, -999.0
28-12-2022, 00:23:12,    195,    0.0,    8.6,   0.00,   0.00, 1005.9,    0.0, -999.0
28-12-2022, 00:23:22,    264,    0.2,    8.5,   0.00,   0.00, 1006.0,    0.1, -999.0
28-12-2022, 00:23:32,    264,    0.1,    8.6,   0.00,   0.00, 1005.8,    0.0, -999.0
28-12-2022, 00:23:42,    261,    1.1,    8.5,   0.00,   0.00, 1005.9,    0.0, -999.0
28-12-2022, 00:23:52,    228,    0.7,    8.6,   0.00,   0.00, 1005.9,    0.1, -999.0
28-12-2022, 00:24:02,    223,    3.3,    8.7,   0.00,   0.00, 1006.1,    0.0, -999.0
28-12-2022, 00:24:12,    268,    3.5,    8.6,   0.00,   0.00, 1006.1,    0.1, -999.0
28-12-2022, 00:24:22,    272,    1.2,    8.6,   0.00,   0.00, 1006.1,    0.1, -999.0
28-12-2022, 00:24:32,    302,    2.1,    8.6,   0.00,   0.00, 1006.1,    0.0, -999.0
28-12-2022, 00:24:42,    258,    3.3,    8.6,   0.00,   0.00, 1006.1,   85.2, -999.0
28-12-2022, 00:24:52,    232,    3.3,    8.7,   0.00,   0.00, 1006.1,   99.0, -999.0
28-12-2022, 00:25:02,    225,    2.6,    8.6,   0.00,   0.00, 1006.1,   99.0, -999.0
28-12-2022, 00:25:12,    340,    3.9,    8.6,   0.00,   0.00, 1006.0,   99.0, -999.0
28-12-2022, 00:25:22,    270,    3.2,    8.6,   0.00,   0.00, 1006.1,   99.0, -999.0
28-12-2022, 00:25:32,    255,    8.0,    8.6,   0.00,   0.00, 1006.1,   99.0, -999.0
28-12-2022, 00:25:42,    203,    3.1,    8.6,   0.00,   0.00, 1006.1,   99.0, -999.0
28-12-2022, 00:25:52,    265,    0.9,    8.6,   0.00,   0.00, 1006.1,   99.0, -999.0
28-12-2022, 00:26:02,    259,    1.7,    8.6,   0.00,   0.00, 1006.1,   99.0, -999.0
28-12-2022, 00:26:12,    260,    0.4,    8.6,   0.00,   0.00, 1006.1,   98.9, -999.0
28-12-2022, 00:26:22,    259,    0.3,    8.6,   0.00,   0.00, 1006.1,   98.9, -999.0
28-12-2022, 00:26:32,    258,    0.0,    8.5,   0.00,   0.00, 1006.0,   98.6, -999.0
28-12-2022, 00:26:42,    258,    0.0,    8.5,   0.00,   0.00, 1006.0,   98.6, -999.0
28-12-2022, 00:26:52,    217,    1.8,    8.5,   0.00,   0.01, 1006.2,   99.0, -999.0
28-12-2022, 00:27:02,    264,    7.2,    8.6,   0.00,   0.00, 1006.1,   99.0, -999.0
28-12-2022, 00:27:12,    228,    8.9,    8.6,   0.00,   0.00, 1006.2,   99.0, -999.0
28-12-2022, 00:27:21,    230,    5.0,    8.6,   0.00,   0.00, 1006.2,   98.9, -999.0
28-12-2022, 00:27:32,    261,    3.3,    8.6,   0.00,   0.00, 1006.2,   99.0, -999.0
28-12-2022, 00:27:42,    257,    6.2,    8.6,   0.00,   0.00, 1006.2,   99.0, -999.0
28-12-2022, 00:27:52,    257,    3.1,    8.6,   0.00,   0.00, 1006.2,   98.9, -999.0
28-12-2022, 00:28:01,    230,    1.8,    8.6,   0.00,   0.00, 1006.2,   99.0, -999.0
28-12-2022, 00:28:12,    243,    3.6,    8.6,   0.00,   0.00, 1006.2,   98.7, -999.0
28-12-2022, 00:28:22,    248,    1.3,    8.7,   0.00,   0.00, 1006.2,   97.4, -999.0
28-12-2022, 00:28:31,    233,    2.4,    8.6,   0.00,   0.00, 1006.3,   96.8, -999.0
28-12-2022, 00:28:41,    254,    2.1,    8.6,   0.00,   0.00, 1006.2,   96.5, -999.0
28-12-2022, 00:28:52,    275,    4.7,    8.6,   0.00,   0.00, 1006.2,   96.2, -999.0
28-12-2022, 00:29:01,    203,    3.8,    8.6,   0.00,   0.00, 1006.2,   95.2, -999.0
28-12-2022, 00:29:11,    212,    1.6,    8.6,   0.00,   0.00, 1006.3,   94.7, -999.0
28-12-2022, 00:29:22,    262,    0.7,    8.7,   0.00,   0.00, 1006.2,   94.2, -999.0
28-12-2022, 00:29:32,    233,    3.8,    8.6,   0.00,   0.00, 1006.3,   93.9, -999.0
28-12-2022, 00:29:41,    266,    5.6,    8.7,   0.00,   0.00, 1006.3,   93.4, -999.0
28-12-2022, 00:29:51,    245,    7.4,    8.7,   0.00,   0.00, 1006.3,   92.7, -999.0
28-12-2022, 00:30:02,    229,    6.9,    8.7,   0.00,   0.00, 1006.3,   92.0, -999.0
28-12-2022, 00:30:11,    188,    5.6,    8.7,   0.00,   0.00, 1006.3,   91.6, -999.0
28-12-2022, 00:30:21,    218,    3.8,    8.7,   0.00,   0.00, 1006.3,   91.2, -999.0
28-12-2022, 00:30:31,    225,    1.1,    8.7,   0.00,   0.00, 1006.3,   91.1, -999.0
28-12-2022, 00:30:41,    248,    1.7,    8.8,   0.00,   0.00, 1006.3,   90.9, -999.0
28-12-2022, 00:30:51,    228,    4.3,    8.7,   0.00,   0.00, 1006.3,   91.0, -999.0
28-12-2022, 00:31:01,    241,    2.5,    8.6,   0.00,   0.00, 1006.3,   90.8, -999.0
28-12-2022, 00:31:12,    260,    2.5,    8.7,   0.00,   0.00, 1006.3,   90.6, -999.0
28-12-2022, 00:31:21,    217,    1.9,    8.7,   0.00,   0.00, 1006.3,   90.7, -999.0
28-12-2022, 00:31:31,    219,    1.6,    8.6,   0.00,   0.00, 1006.3,   90.6, -999.0
28-12-2022, 00:31:41,    214,    0.2,    8.6,   0.00,   0.00, 1006.2,   90.5, -999.0
28-12-2022, 00:31:51,    214,    0.0,    8.6,   0.00,   0.00, 1006.2,   90.4, -999.0
28-12-2022, 00:32:01,    263,    2.0,    8.6,   0.00,   0.00, 1006.3,   90.9, -999.0
28-12-2022, 00:32:11,    260,    1.3,    8.6,   0.00,   0.00, 1006.3,   91.0, -999.0
28-12-2022, 00:32:21,    247,    1.4,    8.6,   0.00,   0.00, 1006.3,   91.2, -999.0
28-12-2022, 00:32:31,    228,    1.8,    8.6,   0.00,   0.00, 1006.3,   91.4, -999.0
28-12-2022, 00:32:41,    235,    2.7,    8.6,   0.00,   0.00, 1006.3,   91.6, -999.0
28-12-2022, 00:32:51,    250,    2.6,    8.6,   0.00,   0.00, 1006.3,   91.5, -999.0
28-12-2022, 00:33:01,    267,    4.4,    8.6,   0.00,   0.00, 1006.4,   91.6, -999.0
28-12-2022, 00:33:11,    277,    2.9,    8.6,   0.00,   0.00, 1006.3,   91.7, -999.0
28-12-2022, 00:33:21,    304,    1.5,    8.6,   0.00,   0.00, 1006.3,   92.0, -999.0
28-12-2022, 00:33:31,    254,    0.8,    8.6,   0.00,   0.00, 1006.4,   92.1, -999.0
28-12-2022, 00:33:41,    250,    3.7,    8.5,   0.00,   0.00, 1006.3,   92.2, -999.0
28-12-2022, 00:33:51,    256,    2.9,    8.6,   0.00,   0.00, 1006.3,   91.8, -999.0
28-12-2022, 00:34:01,    260,    2.3,    8.6,   0.00,   0.00, 1006.3,   91.6, -999.0
28-12-2022, 00:34:11,    266,    2.1,    8.6,   0.00,   0.00, 1006.3,   91.5, -999.0
28-12-2022, 00:34:21,    267,    1.0,    8.6,   0.00,   0.00, 1006.3,   91.6, -999.0
28-12-2022, 00:34:31,    262,    1.3,    8.6,   0.00,   0.00, 1006.4,   91.7, -999.0
28-12-2022, 00:34:41,    262,    0.5,    8.5,   0.00,   0.00, 1006.2,   91.8, -999.0
28-12-2022, 00:34:51,    258,    0.4,    8.5,   0.00,   0.00, 1006.3,   92.2, -999.0
28-12-2022, 00:35:01,    214,    0.7,    8.5,   0.00,   0.00, 1006.3,   92.3, -999.0
28-12-2022, 00:35:11,    250,    3.9,    8.6,   0.00,   0.00, 1006.3,   92.3, -999.0
28-12-2022, 00:35:21,    224,    4.4,    8.6,   0.00,   0.00, 1006.4,   91.7, -999.0
28-12-2022, 00:35:31,    231,    4.4,    8.6,   0.00,   0.00, 1006.4,   91.2, -999.0
28-12-2022, 00:35:41,    243,    5.5,    8.6,   0.00,   0.00, 1006.4,   91.0, -999.0
28-12-2022, 00:35:51,    217,    2.9,    8.6,   0.00,   0.00, 1006.3,   90.6, -999.0
28-12-2022, 00:36:01,    286,    2.0,    8.6,   0.00,   0.00, 1006.3,   90.4, -999.0
28-12-2022, 00:36:11,    242,    2.2,    8.5,   0.00,   0.00, 1006.4,   90.3, -999.0
28-12-2022, 00:36:21,    280,    1.3,    8.6,   0.00,   0.00, 1006.3,   90.4, -999.0
28-12-2022, 00:36:31,    277,    0.8,    8.6,   0.00,   0.00, 1006.3,   90.6, -999.0
28-12-2022, 00:36:41,    276,    1.0,    8.6,   0.00,   0.00, 1006.3,   90.6, -999.0
28-12-2022, 00:36:50,    276,    0.1,    8.5,   0.00,   0.00, 1006.2,   90.6, -999.0
28-12-2022, 00:37:01,    280,    0.0,    8.4,   0.00,   0.00, 1006.2,   90.6, -999.0
28-12-2022, 00:37:11,    280,    0.9,    8.5,   0.00,   0.00, 1006.3,   91.0, -999.0
28-12-2022, 00:37:21,    211,    1.0,    8.5,   0.00,   0.00, 1006.3,   91.0, -999.0
28-12-2022, 00:37:30,    209,    0.5,    8.5,   0.00,   0.00, 1006.3,   91.1, -999.0
28-12-2022, 00:37:41,    257,    0.1,    8.3,   0.00,   0.00, 1006.2,   90.9, -999.0
28-12-2022, 00:37:51,    223,    1.9,    8.5,   0.00,   0.00, 1006.3,   91.4, -999.0
28-12-2022, 00:38:00,    224,    0.4,    8.5,   0.00,   0.00, 1006.3,   91.2, -999.0
28-12-2022, 00:38:11,    251,    1.0,    8.5,   0.00,   0.00, 1006.3,   91.3, -999.0
28-12-2022, 00:38:21,    253,    1.7,    8.5,   0.00,   0.00, 1006.3,   91.4, -999.0
28-12-2022, 00:38:30,    247,    0.3,    8.5,   0.00,   0.00, 1006.3,   91.6, -999.0
28-12-2022, 00:38:40,    273,    2.3,    8.5,   0.00,   0.00, 1006.3,   91.9, -999.0
28-12-2022, 00:38:51,    246,    3.0,    8.5,   0.00,   0.00, 1006.4,   91.8, -999.0
28-12-2022, 00:39:01,    215,    3.2,    8.5,   0.00,   0.00, 1006.4,   91.7, -999.0
28-12-2022, 00:39:10,    235,    4.0,    8.5,   0.00,   0.00, 1006.4,   91.8, -999.0
28-12-2022, 00:39:20,    205,    2.6,    8.4,   0.00,   0.00, 1006.4,   91.6, -999.0
28-12-2022, 00:39:31,    232,    2.3,    8.5,   0.00,   0.00, 1006.4,   91.2, -999.0
28-12-2022, 00:39:40,    276,    1.3,    8.5,   0.00,   0.00, 1006.3,   91.1, -999.0
28-12-2022, 00:39:50,    198,    3.1,    8.5,   0.00,   0.00, 1006.3,   91.0, -999.0
28-12-2022, 00:40:00,    243,    3.3,    8.5,   0.00,   0.00, 1006.3,   91.0, -999.0
28-12-2022, 00:40:10,    246,    3.1,    8.5,   0.00,   0.00, 1006.3,   90.7, -999.0
28-12-2022, 00:40:20,    222,    3.5,    8.5,   0.00,   0.00, 1006.3,   90.4, -999.0
28-12-2022, 00:40:30,    201,    3.3,    8.5,   0.00,   0.00, 1006.3,   90.3, -999.0
28-12-2022, 00:40:40,    275,    1.9,    8.4,   0.00,   0.00, 1006.3,   90.2, -999.0
28-12-2022, 00:40:50,    239,    2.6,    8.4,   0.00,   0.00, 1006.4,   90.1, -999.0
28-12-2022, 00:41:00,    255,    4.3,    8.5,   0.00,   0.00, 1006.4,   90.1, -999.0
28-12-2022, 00:41:10,    246,    5.4,    8.5,   0.00,   0.00, 1006.4,   89.9, -999.0
28-12-2022, 00:41:20,    250,    5.3,    8.4,   0.00,   0.00, 1006.4,   89.9, -999.0
28-12-2022, 00:41:30,    277,    4.7,    8.4,   0.00,   0.00, 1006.4,   89.7, -999.0
28-12-2022, 00:41:40,    260,    3.9,    8.4,   0.00,   0.00, 1006.4,   89.7, -999.0
28-12-2022, 00:41:50,    277,    3.5,    8.4,   0.00,   0.00, 1006.4,   89.8, -999.0
28-12-2022, 00:42:00,    227,    3.7,    8.4,   0.00,   0.00, 1006.3,   89.6, -999.0
28-12-2022, 00:42:10,    242,    2.8,    8.4,   0.00,   0.00, 1006.4,   89.3, -999.0
28-12-2022, 00:42:20,    232,    5.6,    8.4,   0.00,   0.00, 1006.4,   89.1, -999.0
28-12-2022, 00:42:30,    222,    5.0,    8.4,   0.00,   0.00, 1006.4,   88.8, -999.0
28-12-2022, 00:42:40,    263,    4.3,    8.4,   0.00,   0.00, 1006.4,   88.7, -999.0
28-12-2022, 00:42:50,    244,    4.3,    8.5,   0.00,   0.00, 1006.4,   88.5, -999.0
28-12-2022, 00:43:00,    272,    3.3,    8.4,   0.00,   0.00, 1006.4,   88.1, -999.0
28-12-2022, 00:43:10,    229,    3.8,    8.4,   0.00,   0.00, 1006.4,   88.1, -999.0
28-12-2022, 00:43:20,    258,    4.2,    8.4,   0.00,   0.00, 1006.4,   87.9, -999.0
28-12-2022, 00:43:30,    267,    3.3,    8.4,   0.00,   0.00, 1006.3,   87.8, -999.0
28-12-2022, 00:43:40,    259,    2.0,    8.4,   0.00,   0.00, 1006.4,   87.8, -999.0
28-12-2022, 00:43:50,    211,    0.9,    8.4,   0.00,   0.00, 1006.4,   87.8, -999.0
28-12-2022, 00:44:00,    212,    0.3,    8.3,   0.00,   0.00, 1006.4,   87.7, -999.0
28-12-2022, 00:44:10,    219,    1.1,    8.4,   0.00,   0.00, 1006.4,   87.8, -999.0
28-12-2022, 00:44:20,    201,    1.5,    8.3,   0.00,   0.00, 1006.3,   87.8, -999.0
28-12-2022, 00:44:30,    231,    2.2,    8.4,   0.00,   0.00, 1006.4,   88.0, -999.0
28-12-2022, 00:44:40,    219,    2.1,    8.4,   0.00,   0.00, 1006.3,   88.1, -999.0
28-12-2022, 00:44:50,    257,    1.0,    8.3,   0.00,   0.00, 1006.3,   88.1, -999.0
28-12-2022, 00:45:00,    257,    0.0,    8.3,   0.00,   0.00, 1006.3,   87.7, -999.0
28-12-2022, 00:45:10,    257,    0.0,    8.2,   0.00,   0.00, 1006.3,   87.8, -999.0
28-12-2022, 00:45:20,    257,    0.0,    8.2,   0.00,   0.00, 1006.3,   87.8, -999.0
28-12-2022, 00:45:30,    232,    0.6,    8.2,   0.00,   0.00, 1006.4,   88.1, -999.0
28-12-2022, 00:45:40,    300,    1.1,    8.3,   0.00,   0.00, 1006.4,   88.3, -999.0
28-12-2022, 00:45:50,    237,    1.7,    8.3,   0.00,   0.00, 1006.5,   88.2, -999.0
28-12-2022, 00:46:00,    176,    2.7,    8.3,   0.00,   0.00, 1006.5,   88.2, -999.0
28-12-2022, 00:46:10,    269,    1.8,    8.3,   0.00,   0.00, 1006.4,   88.1, -999.0
28-12-2022, 00:46:19,    225,    2.3,    8.3,   0.00,   0.00, 1006.4,   87.9, -999.0
28-12-2022, 00:46:30,    247,    3.5,    8.3,   0.00,   0.00, 1006.5,   87.8, -999.0
28-12-2022, 00:46:40,    263,    4.0,    8.3,   0.00,   0.00, 1006.5,   87.7, -999.0
28-12-2022, 00:46:49,    304,    3.0,    8.3,   0.00,   0.00, 1006.5,   87.4, -999.0